SITRO-AIS 12 (SMIRENNIY)

Last updated on Sun Jun 21 2026 00:03:50 GMT+0000 (Coordinated Universal Time)

1 57204U 23091AQ 26171.45333795 .00016504 00000+0 43566-3 0 9991 2 57204 97.5087 242.2705 0007058 65.6570 294.5411 15.38515781165278
UTC large
Height (km)
Speed (km/s)
/
Latitude / Longitude
Inclination (degrees)
Orbital Period (minutes)
Azimuth
Elevation
Range (km)
Doppler Factor

Next 0 passes for location: London (51.5072 / 0.1276)

No passes found over London.
SITRO-AIS 12 (SMIRENNIY)